TAP1127 GCTS-LPPT

Flight info

Callsign TAP1127
Flight time N/A
Altitude 38000
Route VASTO UN858 AKUDA DCT VATZI
Aircraft A319/M-SDE3FGHIRWY/LB1

Departure

Time 2026-05-06 21:11
Airport Tenerife Sur Airport (GCTS)

Arrival

Time N/A
Airport Lisbon Humberto Delgado Airport (LPPT)
Time Latitude Longitude Altitude Speed Heading
2026-05-06 20:45 28.04647 -16.57841 227 ft 0 kts 338°
2026-05-06 21:04 28.04643 -16.57840 226 ft 3 kts 338°
2026-05-06 21:04 28.04619 -16.57827 226 ft 4 kts 332°
2026-05-06 21:04 28.04596 -16.57811 226 ft 4 kts 315°
2026-05-06 21:04 28.04584 -16.57788 228 ft 3 kts 253°
2026-05-06 21:05 28.04586 -16.57780 228 ft 0 kts 249°
2026-05-06 21:06 28.04582 -16.57793 229 ft 4 kts 249°
2026-05-06 21:07 28.04565 -16.57841 224 ft 8 kts 249°
2026-05-06 21:07 28.04547 -16.57904 226 ft 8 kts 247°
2026-05-06 21:07 28.04493 -16.57925 223 ft 10 kts 163°
2026-05-06 21:07 28.04422 -16.57900 223 ft 11 kts 186°
2026-05-06 21:08 28.04389 -16.57942 223 ft 12 kts 245°
2026-05-06 21:08 28.04352 -16.58049 223 ft 17 kts 248°
2026-05-06 21:08 28.04307 -16.58179 223 ft 18 kts 249°
2026-05-06 21:08 28.04259 -16.58310 223 ft 18 kts 248°
2026-05-06 21:09 28.04214 -16.58442 225 ft 18 kts 249°
2026-05-06 21:09 28.04177 -16.58577 223 ft 18 kts 250°
2026-05-06 21:09 28.04128 -16.58717 217 ft 19 kts 248°
2026-05-06 21:09 28.04069 -16.58793 209 ft 11 kts 182°
2026-05-06 21:10 28.04003 -16.58732 201 ft 17 kts 101°
2026-05-06 21:10 28.03989 -16.58581 205 ft 20 kts 84°
2026-05-06 21:10 28.04080 -16.58303 206 ft 72 kts 69°
2026-05-06 21:10 28.04349 -16.57532 199 ft 136 kts 68°
2026-05-06 21:11 28.04714 -16.56425 542 ft 154 kts 70°
2026-05-06 21:11 28.05104 -16.55279 1282 ft 158 kts 66°
2026-05-06 21:11 28.05526 -16.54088 1818 ft 171 kts 66°
2026-05-06 21:11 28.05976 -16.52758 2183 ft 195 kts 66°
2026-05-06 21:12 28.06490 -16.51219 2568 ft 222 kts 66°
2026-05-06 21:12 28.07094 -16.49510 3133 ft 244 kts 66°
2026-05-06 21:12 28.07745 -16.47683 3914 ft 255 kts 66°
2026-05-06 21:12 28.08412 -16.45788 4808 ft 263 kts 68°
2026-05-06 21:13 28.08747 -16.43727 5664 ft 272 kts 84°
2026-05-06 21:13 28.08907 -16.41574 6555 ft 277 kts 84°
2026-05-06 21:13 28.09066 -16.39371 7400 ft 283 kts 84°
2026-05-06 21:13 28.09227 -16.37127 8261 ft 289 kts 83°
2026-05-06 21:14 28.09393 -16.34840 9125 ft 294 kts 83°
2026-05-06 21:14 28.09561 -16.32512 9979 ft 299 kts 83°
2026-05-06 21:14 28.09732 -16.30141 10715 ft 307 kts 83°
2026-05-06 21:14 28.09918 -16.27643 11034 ft 330 kts 83°
2026-05-06 21:15 28.10120 -16.24960 11297 ft 353 kts 83°
2026-05-06 21:15 28.10329 -16.22128 11799 ft 366 kts 83°
2026-05-06 21:15 28.10532 -16.19268 12475 ft 372 kts 84°
2026-05-06 21:15 28.10736 -16.16323 13175 ft 378 kts 84°
2026-05-06 21:16 28.10943 -16.13337 13866 ft 383 kts 84°
2026-05-06 21:16 28.11156 -16.10313 14484 ft 388 kts 84°
2026-05-06 21:16 28.11374 -16.07250 15126 ft 392 kts 84°
2026-05-06 21:16 28.11593 -16.04163 15781 ft 395 kts 84°
2026-05-06 21:17 28.11648 -16.01029 16423 ft 400 kts 92°
2026-05-06 21:17 28.11441 -15.97875 17073 ft 404 kts 93°
2026-05-06 21:17 28.11232 -15.94689 17713 ft 407 kts 93°
2026-05-06 21:17 28.11018 -15.91471 18345 ft 412 kts 93°
2026-05-06 21:18 28.10800 -15.88225 18893 ft 415 kts 92°
2026-05-06 21:18 28.10581 -15.84959 19474 ft 417 kts 92°
2026-05-06 21:18 28.10359 -15.81670 20074 ft 419 kts 92°
2026-05-06 21:18 28.10138 -15.78374 20677 ft 421 kts 91°
2026-05-06 21:19 28.09914 -15.75060 21265 ft 423 kts 91°
2026-05-06 21:19 28.09687 -15.71727 21828 ft 425 kts 91°
2026-05-06 21:19 28.09460 -15.68377 22407 ft 427 kts 90°
2026-05-06 21:19 28.09233 -15.65014 22951 ft 429 kts 90°
2026-05-06 21:20 28.09006 -15.61641 23488 ft 432 kts 90°
2026-05-06 21:20 28.08774 -15.58243 23956 ft 434 kts 90°
2026-05-06 21:20 28.08536 -15.54823 24361 ft 437 kts 90°
2026-05-06 21:20 28.08408 -15.51390 24739 ft 436 kts 83°
2026-05-06 21:21 28.08815 -15.48005 25108 ft 433 kts 71°
2026-05-06 21:21 28.09775 -15.44796 25480 ft 429 kts 61°
2026-05-06 21:21 28.11230 -15.41871 25851 ft 426 kts 50°
2026-05-06 21:21 28.13122 -15.39315 26222 ft 422 kts 40°
2026-05-06 21:22 28.15384 -15.37218 26590 ft 419 kts 30°
2026-05-06 21:22 28.17838 -15.35414 26965 ft 421 kts 28°
2026-05-06 21:22 28.20303 -15.33594 27344 ft 424 kts 29°
2026-05-06 21:22 28.22777 -15.31754 27715 ft 427 kts 29°
2026-05-06 21:23 28.25260 -15.29899 28073 ft 429 kts 29°
2026-05-06 21:23 28.27760 -15.28031 28432 ft 431 kts 29°
2026-05-06 21:23 28.30275 -15.26153 28781 ft 434 kts 29°
2026-05-06 21:23 28.32800 -15.24268 29121 ft 436 kts 28°
2026-05-06 21:24 28.35343 -15.22370 29461 ft 438 kts 28°
2026-05-06 21:24 28.37894 -15.20467 29775 ft 440 kts 28°
2026-05-06 21:24 28.40462 -15.18551 30103 ft 443 kts 28°
2026-05-06 21:24 28.43039 -15.16624 30381 ft 445 kts 28°
2026-05-06 21:25 28.45624 -15.14691 30677 ft 445 kts 28°
2026-05-06 21:25 28.48210 -15.12756 31082 ft 444 kts 28°
2026-05-06 21:25 28.50783 -15.10828 31487 ft 442 kts 28°
2026-05-06 21:25 28.53348 -15.08903 31902 ft 441 kts 28°
2026-05-06 21:26 28.55899 -15.06990 32312 ft 439 kts 28°
2026-05-06 21:26 28.58449 -15.05077 32734 ft 437 kts 28°
2026-05-06 21:26 28.60979 -15.03179 33149 ft 436 kts 28°
2026-05-06 21:26 28.63506 -15.01280 33570 ft 434 kts 28°
2026-05-06 21:27 28.66016 -14.99387 33991 ft 432 kts 28°
2026-05-06 21:27 28.68523 -14.97499 34354 ft 431 kts 28°
2026-05-06 21:27 28.71023 -14.95619 34654 ft 431 kts 28°
2026-05-06 21:27 28.73530 -14.93733 34926 ft 432 kts 28°
2026-05-06 21:28 28.76045 -14.91842 35194 ft 433 kts 28°
2026-05-06 21:28 28.78562 -14.89950 35440 ft 434 kts 28°
2026-05-06 21:28 28.81090 -14.88046 35678 ft 435 kts 28°
2026-05-06 21:28 28.83617 -14.86144 35919 ft 437 kts 28°
2026-05-06 21:29 28.86157 -14.84230 36008 ft 438 kts 28°
2026-05-06 21:29 28.91240 -14.80383 36026 ft 438 kts 28°
2026-05-06 21:30 28.96283 -14.76564 36028 ft 438 kts 28°
2026-05-06 21:30 29.01359 -14.72719 36029 ft 438 kts 28°
2026-05-06 21:31 29.06470 -14.68848 36030 ft 438 kts 28°
2026-05-06 21:31 29.11543 -14.64998 36028 ft 437 kts 29°
2026-05-06 21:32 29.16571 -14.61165 36031 ft 437 kts 29°
2026-05-06 21:32 29.24196 -14.55360 36030 ft 436 kts 28°
2026-05-06 21:33 29.29215 -14.51539 36027 ft 436 kts 28°
2026-05-06 21:33 29.34261 -14.47684 36026 ft 436 kts 28°
2026-05-06 21:34 29.39314 -14.43832 36025 ft 436 kts 28°
2026-05-06 21:34 29.44366 -14.39984 36024 ft 436 kts 28°
2026-05-06 21:35 29.49401 -14.36117 36023 ft 436 kts 29°
2026-05-06 21:35 29.54443 -14.32240 36014 ft 436 kts 29°
2026-05-06 21:36 29.59480 -14.28365 36016 ft 436 kts 29°
2026-05-06 21:36 29.64519 -14.24498 36022 ft 436 kts 29°
2026-05-06 21:37 29.69556 -14.20624 36023 ft 436 kts 29°
2026-05-06 21:37 29.74590 -14.16737 36023 ft 436 kts 29°
2026-05-06 21:38 29.79624 -14.12848 36024 ft 436 kts 29°
2026-05-06 21:38 29.84658 -14.08965 36022 ft 436 kts 29°
2026-05-06 21:39 29.89687 -14.05078 36022 ft 436 kts 29°
2026-05-06 21:39 29.94720 -14.01181 36024 ft 436 kts 29°
2026-05-06 21:40 29.99756 -13.97275 36019 ft 436 kts 29°
2026-05-06 21:40 30.04795 -13.93366 36021 ft 436 kts 29°
2026-05-06 21:41 30.09827 -13.89453 36020 ft 436 kts 29°
2026-05-06 21:41 30.14862 -13.85530 36022 ft 436 kts 29°
2026-05-06 21:42 30.19854 -13.81627 36018 ft 437 kts 29°
2026-05-06 21:42 30.24889 -13.77697 36019 ft 437 kts 29°
2026-05-06 21:43 30.29924 -13.73768 36022 ft 437 kts 29°
2026-05-06 21:43 30.34961 -13.69831 36024 ft 437 kts 29°
2026-05-06 21:44 30.39995 -13.65890 36028 ft 437 kts 29°
2026-05-06 21:44 30.45024 -13.61944 36022 ft 437 kts 29°
2026-05-06 21:45 30.50054 -13.57998 36018 ft 437 kts 29°
2026-05-06 21:45 30.55074 -13.54015 36015 ft 437 kts 30°
2026-05-06 21:46 30.60080 -13.50015 36022 ft 437 kts 30°
2026-05-06 21:46 30.65089 -13.46011 36023 ft 437 kts 30°
2026-05-06 21:47 30.70103 -13.42003 36016 ft 437 kts 29°
2026-05-06 21:47 30.75122 -13.38007 36014 ft 437 kts 29°
2026-05-06 21:48 30.80139 -13.34002 36014 ft 438 kts 30°
2026-05-06 21:48 30.85159 -13.29982 36018 ft 438 kts 30°
2026-05-06 21:49 30.90180 -13.25958 36018 ft 438 kts 30°
2026-05-06 21:49 30.95200 -13.21936 36016 ft 438 kts 29°
2026-05-06 21:50 31.00236 -13.17937 36016 ft 438 kts 29°
2026-05-06 21:50 31.05282 -13.13936 36018 ft 438 kts 29°
2026-05-06 21:51 31.10317 -13.09929 36018 ft 438 kts 29°
2026-05-06 21:51 31.15325 -13.05946 36024 ft 438 kts 29°
2026-05-06 21:52 31.20361 -13.01917 36024 ft 438 kts 29°
2026-05-06 21:52 31.25394 -12.97890 36030 ft 438 kts 29°
2026-05-06 21:53 31.30423 -12.93864 36022 ft 438 kts 29°
2026-05-06 21:53 31.35452 -12.89824 36019 ft 438 kts 29°
2026-05-06 21:54 31.40481 -12.85783 36018 ft 439 kts 30°
2026-05-06 21:54 31.44665 -12.82421 36016 ft 439 kts 29°
2026-05-06 21:55 31.49696 -12.78372 36019 ft 439 kts 29°
2026-05-06 21:55 31.54728 -12.74323 36022 ft 439 kts 30°
2026-05-06 21:56 31.59760 -12.70266 36022 ft 439 kts 30°
2026-05-06 21:56 31.64788 -12.66206 36023 ft 439 kts 30°
2026-05-06 21:57 31.69814 -12.62129 36022 ft 439 kts 30°
2026-05-06 21:57 31.74842 -12.58054 36023 ft 439 kts 30°
2026-05-06 21:58 31.79872 -12.53973 36022 ft 439 kts 30°
2026-05-06 21:58 31.84903 -12.49882 36018 ft 439 kts 30°
2026-05-06 21:59 31.89935 -12.45803 36021 ft 440 kts 30°
2026-05-06 21:59 31.94967 -12.41709 36023 ft 440 kts 30°
2026-05-06 22:00 31.99993 -12.37604 36023 ft 440 kts 30°
2026-05-06 22:00 32.05031 -12.33507 36021 ft 440 kts 30°
2026-05-06 22:01 32.10067 -12.29405 36024 ft 440 kts 30°
2026-05-06 22:01 32.15100 -12.25296 36024 ft 440 kts 30°
2026-05-06 22:02 32.20135 -12.21188 36015 ft 440 kts 29°
2026-05-06 22:02 32.25142 -12.17100 36017 ft 440 kts 30°
2026-05-06 22:03 32.30180 -12.12976 36028 ft 440 kts 30°
2026-05-06 22:03 32.35212 -12.08847 36023 ft 441 kts 30°
2026-05-06 22:04 32.40252 -12.04711 36021 ft 441 kts 30°
2026-05-06 22:04 32.45286 -12.00565 36018 ft 441 kts 30°
2026-05-06 22:05 32.50325 -11.96402 36016 ft 442 kts 30°
2026-05-06 22:05 32.55372 -11.92239 36012 ft 442 kts 30°
2026-05-06 22:06 32.60419 -11.88073 35996 ft 443 kts 30°
2026-05-06 22:06 32.65475 -11.83893 36013 ft 443 kts 30°
2026-05-06 22:07 32.70532 -11.79704 36010 ft 444 kts 30°
2026-05-06 22:07 32.75592 -11.75501 36012 ft 444 kts 30°
2026-05-06 22:08 32.80655 -11.71295 36009 ft 445 kts 30°
2026-05-06 22:08 32.85729 -11.67070 35999 ft 445 kts 30°
2026-05-06 22:09 32.90803 -11.62849 36004 ft 446 kts 30°
2026-05-06 22:09 32.95853 -11.58641 35995 ft 446 kts 30°
2026-05-06 22:10 33.00947 -11.54394 36000 ft 447 kts 30°
2026-05-06 22:10 33.06038 -11.50131 36000 ft 448 kts 30°
2026-05-06 22:11 33.11139 -11.45842 36003 ft 449 kts 30°
2026-05-06 22:11 33.16256 -11.41549 35996 ft 450 kts 30°
2026-05-06 22:12 33.21380 -11.37243 36000 ft 451 kts 30°
2026-05-06 22:12 33.26498 -11.32902 36000 ft 452 kts 30°
2026-05-06 22:13 33.31616 -11.28542 35994 ft 452 kts 30°
2026-05-06 22:13 33.36752 -11.24177 35995 ft 453 kts 30°
2026-05-06 22:14 33.41884 -11.19805 35993 ft 454 kts 30°
2026-05-06 22:14 33.47030 -11.15419 35995 ft 454 kts 30°
2026-05-06 22:15 33.52183 -11.11022 35993 ft 455 kts 31°
2026-05-06 22:15 33.57344 -11.06607 35993 ft 456 kts 31°
2026-05-06 22:16 33.62510 -11.02172 35994 ft 457 kts 31°
2026-05-06 22:16 33.67690 -10.97737 35996 ft 458 kts 31°
2026-05-06 22:17 33.72874 -10.93290 35991 ft 458 kts 31°
2026-05-06 22:17 33.78064 -10.88829 35990 ft 459 kts 31°
2026-05-06 22:18 33.83253 -10.84360 35988 ft 459 kts 31°
2026-05-06 22:18 33.88453 -10.79870 35992 ft 460 kts 31°
2026-05-06 22:19 33.93653 -10.75364 35985 ft 461 kts 31°
2026-05-06 22:19 33.98862 -10.70848 35986 ft 461 kts 31°
2026-05-06 22:20 34.04081 -10.66326 35979 ft 462 kts 31°
2026-05-06 22:20 34.09296 -10.61809 35981 ft 462 kts 31°
2026-05-06 22:21 34.14513 -10.57262 35981 ft 463 kts 31°
2026-05-06 22:21 34.19698 -10.52725 35976 ft 463 kts 31°
2026-05-06 22:22 34.24925 -10.48165 35975 ft 464 kts 31°
2026-05-06 22:22 34.30170 -10.43600 35976 ft 465 kts 31°
2026-05-06 22:23 34.35419 -10.39022 35970 ft 466 kts 31°
2026-05-06 22:23 34.40669 -10.34420 35972 ft 466 kts 31°
2026-05-06 22:24 34.45924 -10.29793 35970 ft 467 kts 31°
2026-05-06 22:24 34.51183 -10.25164 35968 ft 468 kts 32°
2026-05-06 22:25 34.56458 -10.20518 35966 ft 468 kts 32°
2026-05-06 22:25 34.61732 -10.15873 35969 ft 469 kts 32°
2026-05-06 22:26 34.67018 -10.11220 35963 ft 470 kts 31°
2026-05-06 22:26 34.72316 -10.06564 35964 ft 470 kts 32°
2026-05-06 22:27 34.77618 -10.01897 35964 ft 471 kts 32°
2026-05-06 22:27 34.82927 -9.97213 35967 ft 471 kts 32°
2026-05-06 22:28 34.88230 -9.92520 35964 ft 472 kts 32°
2026-05-06 22:28 34.93548 -9.87822 35966 ft 472 kts 32°
2026-05-06 22:29 34.98858 -9.83112 35958 ft 473 kts 32°
2026-05-06 22:29 35.04177 -9.78387 35961 ft 473 kts 32°
2026-05-06 22:30 35.09499 -9.73649 35956 ft 473 kts 32°
2026-05-06 22:30 35.14787 -9.68944 35956 ft 474 kts 32°
2026-05-06 22:31 35.20115 -9.64193 35953 ft 474 kts 32°
2026-05-06 22:31 35.25444 -9.59426 35955 ft 475 kts 32°
2026-05-06 22:32 35.30775 -9.54657 35953 ft 475 kts 32°
2026-05-06 22:32 35.36113 -9.49872 35951 ft 475 kts 32°
2026-05-06 22:33 35.41444 -9.45073 35949 ft 476 kts 32°
2026-05-06 22:33 35.46781 -9.40274 35946 ft 476 kts 32°
2026-05-06 22:34 35.52125 -9.35458 35948 ft 476 kts 32°
2026-05-06 22:34 35.57469 -9.30637 35947 ft 477 kts 32°
2026-05-06 22:35 35.62809 -9.25806 35942 ft 477 kts 32°
2026-05-06 22:35 35.68150 -9.20958 35942 ft 477 kts 33°
2026-05-06 22:36 35.73492 -9.16099 35939 ft 477 kts 32°
2026-05-06 22:36 35.78842 -9.11250 35936 ft 478 kts 32°
2026-05-06 22:37 35.84196 -9.06402 35929 ft 478 kts 32°
2026-05-06 22:37 35.89544 -9.01534 35928 ft 478 kts 33°
2026-05-06 22:38 35.92233 -8.99122 36084 ft 477 kts 29°
2026-05-06 22:38 35.95105 -8.97124 35923 ft 468 kts 20°
2026-05-06 22:38 36.01198 -8.94886 35914 ft 452 kts
2026-05-06 22:39 36.07432 -8.94458 35914 ft 449 kts 358°
2026-05-06 22:39 36.13686 -8.94141 35914 ft 450 kts 358°
2026-05-06 22:40 36.19955 -8.93807 35921 ft 451 kts 358°
2026-05-06 22:40 36.26182 -8.93466 35920 ft 451 kts 358°
2026-05-06 22:41 36.35606 -8.92959 35922 ft 452 kts 358°
2026-05-06 22:42 36.41886 -8.92611 35919 ft 452 kts 358°
2026-05-06 22:42 36.48170 -8.92270 35925 ft 452 kts 358°
2026-05-06 22:43 36.53436 -8.92002 35926 ft 452 kts 358°
2026-05-06 22:43 36.59724 -8.91676 35927 ft 452 kts 358°
2026-05-06 22:44 36.66010 -8.91338 35928 ft 452 kts 358°
2026-05-06 22:44 36.72300 -8.91002 35924 ft 452 kts 358°
2026-05-06 22:45 36.78592 -8.90688 35921 ft 452 kts 358°
2026-05-06 22:45 36.84844 -8.90366 35922 ft 453 kts 358°
2026-05-06 22:46 36.91136 -8.90033 35918 ft 453 kts 358°
2026-05-06 22:46 36.97429 -8.89690 35917 ft 453 kts 358°
2026-05-06 22:47 37.03734 -8.89346 35919 ft 453 kts 358°
2026-05-06 22:47 37.10032 -8.89017 35922 ft 453 kts 358°
2026-05-06 22:48 37.16336 -8.88683 35923 ft 454 kts 358°
2026-05-06 22:48 37.22644 -8.88340 35915 ft 454 kts 358°
2026-05-06 22:49 37.28961 -8.87997 35916 ft 455 kts 358°
2026-05-06 22:49 37.35290 -8.87657 35911 ft 455 kts 358°
2026-05-06 22:50 37.41622 -8.87314 35910 ft 456 kts 358°
2026-05-06 22:50 37.47954 -8.86974 35913 ft 456 kts 358°
2026-05-06 22:51 37.54298 -8.86624 35914 ft 456 kts 358°
2026-05-06 22:51 37.60592 -8.86828 35915 ft 448 kts 345°
2026-05-06 22:52 37.66517 -8.89058 35912 ft 444 kts 338°
2026-05-06 22:52 37.72404 -8.91454 35908 ft 445 kts 338°
2026-05-06 22:53 37.78305 -8.93847 35913 ft 445 kts 338°
2026-05-06 22:53 37.84194 -8.96246 35911 ft 445 kts 338°
2026-05-06 22:54 37.90092 -8.98651 35907 ft 445 kts 338°
2026-05-06 22:54 37.95996 -9.01076 35912 ft 446 kts 338°
2026-05-06 22:55 38.01900 -9.03495 35913 ft 446 kts 338°
2026-05-06 22:55 38.07787 -9.05975 35911 ft 446 kts 338°
2026-05-06 22:56 38.13669 -9.08474 35910 ft 447 kts 339°
2026-05-06 22:56 38.16758 -9.09067 35904 ft 456 kts 359°
2026-05-06 22:56 38.19879 -9.08231 35911 ft 465 kts 20°
2026-05-06 22:56 38.22625 -9.06043 35903 ft 472 kts 40°
2026-05-06 22:57 38.24829 -9.02925 35886 ft 476 kts 52°
2026-05-06 22:57 38.28384 -8.95854 35891 ft 479 kts 56°
2026-05-06 22:57 38.30435 -8.92557 35875 ft 474 kts 39°
2026-05-06 22:58 38.33178 -8.90336 35635 ft 464 kts 15°
2026-05-06 22:58 38.36314 -8.89524 35826 ft 449 kts 353°
2026-05-06 22:58 38.39333 -8.90159 35921 ft 435 kts 333°
2026-05-06 22:58 38.41857 -8.92080 35917 ft 418 kts 311°
2026-05-06 22:59 38.43552 -8.94986 35908 ft 404 kts 290°
2026-05-06 22:59 38.44181 -8.98415 35894 ft 396 kts 269°
2026-05-06 22:59 38.43671 -9.01830 35889 ft 396 kts 247°
2026-05-06 22:59 38.42096 -9.04726 35880 ft 403 kts 226°
2026-05-06 23:00 38.39902 -9.06982 35880 ft 407 kts 222°
2026-05-06 23:00 38.35439 -9.11456 35868 ft 407 kts 228°
2026-05-06 23:00 38.33747 -9.14284 35874 ft 400 kts 245°
2026-05-06 23:01 38.32751 -9.17571 35883 ft 398 kts 257°
2026-05-06 23:01 38.32356 -9.24531 35875 ft 400 kts 281°
2026-05-06 23:02 38.33792 -9.31391 35887 ft 401 kts 282°
2026-05-06 23:02 38.35553 -9.38100 35896 ft 409 kts 297°
2026-05-06 23:03 38.38697 -9.44233 35905 ft 412 kts 300°
2026-05-06 23:03 38.42573 -9.49579 35909 ft 422 kts 318°
2026-05-06 23:03 38.45090 -9.51562 35897 ft 433 kts 333°
2026-05-06 23:04 38.48071 -9.52337 35899 ft 448 kts 354°
2026-05-06 23:04 38.51186 -9.51670 35903 ft 463 kts 16°
2026-05-06 23:04 38.54002 -9.49601 35896 ft 476 kts 37°
2026-05-06 23:04 38.56152 -9.46353 35890 ft 484 kts 59°
2026-05-06 23:05 38.57338 -9.42329 35888 ft 488 kts 80°
2026-05-06 23:05 38.57417 -9.38024 35888 ft 486 kts 99°
2026-05-06 23:05 38.56919 -9.33756 35892 ft 487 kts 100°
2026-05-06 23:06 38.55736 -9.25245 35908 ft 476 kts 112°
2026-05-06 23:06 38.54339 -9.21541 35930 ft 454 kts 122°
2026-05-06 23:06 38.53161 -9.17865 35917 ft 444 kts 103°
2026-05-06 23:06 38.53064 -9.13999 35923 ft 431 kts 78°
2026-05-06 23:07 38.54072 -9.10475 35923 ft 419 kts 53°
2026-05-06 23:07 38.56001 -9.07791 35928 ft 404 kts 28°
2026-05-06 23:07 38.58489 -9.06362 35928 ft 385 kts
2026-05-06 23:07 38.61076 -9.06371 35928 ft 364 kts 337°
2026-05-06 23:08 38.63267 -9.07725 35929 ft 345 kts 314°
2026-05-06 23:08 38.66818 -9.11857 35930 ft 346 kts 311°
2026-05-06 23:09 38.70253 -9.15917 35900 ft 347 kts 311°
2026-05-06 23:09 38.73796 -9.20111 35902 ft 347 kts 311°
2026-05-06 23:10 38.77347 -9.24318 35906 ft 347 kts 311°
2026-05-06 23:10 38.80892 -9.28522 35903 ft 348 kts 312°
2026-05-06 23:11 38.84444 -9.32737 35907 ft 347 kts 312°
2026-05-06 23:11 38.87989 -9.36944 35907 ft 347 kts 312°
2026-05-06 23:12 38.91666 -9.40984 35911 ft 354 kts 327°
2026-05-06 23:12 38.94005 -9.42094 35914 ft 367 kts 346°
2026-05-06 23:12 38.96589 -9.41926 35916 ft 383 kts 12°
2026-05-06 23:12 38.98989 -9.40327 35917 ft 398 kts 37°
2026-05-06 23:13 39.00740 -9.37541 35918 ft 408 kts 63°
2026-05-06 23:13 39.03261 -9.31051 35914 ft 406 kts 43°
2026-05-06 23:13 39.05469 -9.28854 35915 ft 391 kts 18°
2026-05-06 23:14 39.08036 -9.28056 35921 ft 374 kts 352°
2026-05-06 23:14 39.10527 -9.28638 35923 ft 360 kts 333°
2026-05-06 23:14 39.12768 -9.30006 35922 ft 356 kts 326°
2026-05-06 23:15 39.17114 -9.33009 35926 ft 357 kts 326°
2026-05-06 23:15 39.21501 -9.36039 35924 ft 358 kts 327°
2026-05-06 23:16 39.25888 -9.39063 35925 ft 358 kts 327°
2026-05-06 23:16 39.30285 -9.42088 35926 ft 358 kts 327°
2026-05-06 23:17 39.34689 -9.45109 35926 ft 358 kts 327°
2026-05-06 23:17 39.39095 -9.48124 35928 ft 359 kts 327°
2026-05-06 23:18 39.43510 -9.51138 35931 ft 359 kts 327°
2026-05-06 23:18 39.47924 -9.54143 35934 ft 359 kts 328°
2026-05-06 23:19 39.52345 -9.57144 35930 ft 359 kts 328°
2026-05-06 23:19 39.56763 -9.60136 35932 ft 359 kts 328°
2026-05-06 23:20 39.61189 -9.63125 35933 ft 359 kts 328°
2026-05-06 23:20 39.65621 -9.66110 35936 ft 359 kts 328°
2026-05-06 23:21 39.70056 -9.69090 35936 ft 359 kts 328°
2026-05-06 23:21 39.74487 -9.72058 35941 ft 359 kts 328°
2026-05-06 23:22 39.78927 -9.75025 35939 ft 359 kts 328°
2026-05-06 23:22 39.83368 -9.77985 35942 ft 359 kts 329°
2026-05-06 23:23 39.87815 -9.80941 35944 ft 359 kts 329°
2026-05-06 23:23 39.92258 -9.83888 35946 ft 359 kts 329°
2026-05-06 23:24 39.96677 -9.86810 35941 ft 358 kts 329°
2026-05-06 23:24 40.01126 -9.89746 35944 ft 358 kts 329°
2026-05-06 23:25 40.05577 -9.92674 35949 ft 358 kts 329°
2026-05-06 23:25 40.10036 -9.95601 35945 ft 358 kts 329°
2026-05-06 23:26 40.14495 -9.98521 35946 ft 358 kts 329°
2026-05-06 23:26 40.18955 -10.01434 35946 ft 358 kts 330°
2026-05-06 23:27 40.23418 -10.04343 35946 ft 358 kts 330°
2026-05-06 23:27 40.27130 -10.06756 35946 ft 358 kts 330°
2026-05-06 23:28 40.31591 -10.09649 35948 ft 358 kts 330°
2026-05-06 23:28 40.36058 -10.12540 35949 ft 358 kts 330°
2026-05-06 23:29 40.40524 -10.15423 35953 ft 358 kts 330°
2026-05-06 23:29 40.44991 -10.18301 35952 ft 358 kts 330°
2026-05-06 23:29 40.47229 -10.19740 36072 ft 359 kts 332°
2026-05-06 23:30 40.49480 -10.21187 35952 ft 360 kts 332°
2026-05-06 23:30 40.53996 -10.24090 35950 ft 362 kts 332°
2026-05-06 23:31 40.58513 -10.26988 35954 ft 361 kts 332°
2026-05-06 23:31 40.63022 -10.29873 35954 ft 360 kts 332°
2026-05-06 23:32 40.67527 -10.32747 35959 ft 360 kts 333°
2026-05-06 23:32 40.72033 -10.35616 35958 ft 359 kts 333°
2026-05-06 23:33 40.76509 -10.38459 35962 ft 359 kts 333°
2026-05-06 23:33 40.81008 -10.41310 35960 ft 359 kts 333°
2026-05-06 23:34 40.85510 -10.44156 35961 ft 358 kts 333°
2026-05-06 23:34 40.90037 -10.47012 35961 ft 358 kts 333°
2026-05-06 23:35 40.94501 -10.49822 35966 ft 357 kts 333°
2026-05-06 23:35 40.98992 -10.52643 35966 ft 357 kts 333°
2026-05-06 23:36 41.03480 -10.55457 35965 ft 357 kts 333°
2026-05-06 23:36 41.07965 -10.58263 35965 ft 356 kts 333°
2026-05-06 23:37 41.12448 -10.61061 35970 ft 356 kts 333°
2026-05-06 23:37 41.16923 -10.63850 35969 ft 355 kts 334°
2026-05-06 23:38 41.21394 -10.66630 35970 ft 355 kts 334°
2026-05-06 23:38 41.25864 -10.69406 35969 ft 354 kts 334°
2026-05-06 23:39 41.30331 -10.72173 35970 ft 354 kts 334°
2026-05-06 23:39 41.34790 -10.74932 35972 ft 353 kts 334°
2026-05-06 23:40 41.39249 -10.77686 35972 ft 353 kts 334°
2026-05-06 23:40 41.43703 -10.80431 35973 ft 353 kts 334°
2026-05-06 23:41 41.48158 -10.83174 35974 ft 353 kts 334°
2026-05-06 23:41 41.52612 -10.85912 35974 ft 352 kts 334°
2026-05-06 23:42 41.57065 -10.88645 35979 ft 352 kts 334°
2026-05-06 23:42 41.61493 -10.91359 35977 ft 352 kts 334°
2026-05-06 23:43 41.65944 -10.94084 35979 ft 352 kts 334°
2026-05-06 23:43 41.70391 -10.96802 35977 ft 351 kts 334°
2026-05-06 23:44 41.74837 -10.99518 35978 ft 351 kts 334°
2026-05-06 23:44 41.79276 -11.02225 35982 ft 350 kts 334°
2026-05-06 23:45 41.83705 -11.04924 35983 ft 350 kts 335°
2026-05-06 23:45 41.88136 -11.07621 35981 ft 349 kts 335°
2026-05-06 23:46 41.92565 -11.10315 35982 ft 349 kts 335°
2026-05-06 23:46 41.96989 -11.13004 35983 ft 349 kts 335°
2026-05-06 23:47 42.01406 -11.15687 35982 ft 348 kts 335°
2026-05-06 23:47 42.05820 -11.18366 35986 ft 348 kts 335°
2026-05-06 23:48 42.10233 -11.21044 35987 ft 348 kts 335°
2026-05-06 23:48 42.14646 -11.23720 35985 ft 348 kts 335°
2026-05-06 23:49 42.19056 -11.26395 35989 ft 348 kts 335°
2026-05-06 23:49 42.23464 -11.29067 35987 ft 347 kts 335°
2026-05-06 23:50 42.27868 -11.31737 35989 ft 347 kts 335°
2026-05-06 23:50 42.34469 -11.35739 35993 ft 347 kts 335°
2026-05-06 23:51 42.38865 -11.38405 35991 ft 345 kts 335°
2026-05-06 23:51 42.43241 -11.41059 35993 ft 344 kts 335°
2026-05-06 23:52 42.47607 -11.43713 35993 ft 344 kts 335°
2026-05-06 23:52 42.51968 -11.46377 35991 ft 344 kts 335°
2026-05-06 23:53 42.56326 -11.49037 35996 ft 343 kts 335°
2026-05-06 23:53 42.60685 -11.51697 35992 ft 343 kts 335°
2026-05-06 23:54 42.65040 -11.54355 35990 ft 343 kts 335°
2026-05-06 23:54 42.69390 -11.57010 35996 ft 343 kts 335°
2026-05-06 23:55 42.73742 -11.59671 35993 ft 343 kts 335°
2026-05-06 23:55 42.78084 -11.62336 35996 ft 342 kts 335°
2026-05-06 23:56 42.82423 -11.64998 35996 ft 342 kts 334°
2026-05-06 23:56 42.84393 -11.66778 35998 ft 341 kts 312°
2026-05-06 23:56 42.85566 -11.69569 35997 ft 346 kts 287°
2026-05-06 23:57 42.85673 -11.72864 35996 ft 357 kts 261°
2026-05-06 23:57 42.84682 -11.76001 35997 ft 369 kts 241°
2026-05-06 23:57 42.82568 -11.82235 36000 ft 356 kts 270°
2026-05-06 23:58 42.82856 -11.85492 35999 ft 344 kts 295°
2026-05-06 23:58 42.84099 -11.88220 36008 ft 339 kts 316°
2026-05-06 23:58 42.85923 -11.90230 36008 ft 338 kts 329°
2026-05-06 23:58 42.88017 -11.91695 36005 ft 339 kts 336°
2026-05-06 23:59 42.92314 -11.94394 36002 ft 340 kts 336°
2026-05-06 23:59 42.96608 -11.97086 36004 ft 340 kts 334°
2026-05-07 00:00 43.00904 -11.99775 36007 ft 340 kts 333°
2026-05-07 00:00 43.04468 -12.02021 36007 ft 340 kts 336°
2026-05-07 00:01 43.09481 -12.05181 36005 ft 339 kts 336°
2026-05-07 00:01 43.13758 -12.07906 36009 ft 339 kts 334°
2026-05-07 00:02 43.18052 -12.10593 36007 ft 339 kts 332°
2026-05-07 00:02 43.22322 -12.13326 36008 ft 339 kts 336°
2026-05-07 00:03 43.26597 -12.16054 36008 ft 339 kts 332°
2026-05-07 00:03 43.30881 -12.18787 36005 ft 339 kts 336°
2026-05-07 00:04 43.35159 -12.21524 36008 ft 339 kts 332°
2026-05-07 00:04 43.39430 -12.24297 36008 ft 340 kts 336°
2026-05-07 00:05 43.43701 -12.26984 36007 ft 340 kts 334°
2026-05-07 00:05 43.47992 -12.29805 36012 ft 340 kts 331°
2026-05-07 00:06 43.52228 -12.32586 36005 ft 340 kts 336°
2026-05-07 00:06 43.56527 -12.35306 36006 ft 340 kts 336°
2026-05-07 00:07 43.60811 -12.38051 36008 ft 340 kts 333°
2026-05-07 00:07 43.65077 -12.40860 36007 ft 340 kts 330°
2026-05-07 00:08 43.69338 -12.43691 36010 ft 340 kts 330°
2026-05-07 00:08 43.73604 -12.46512 36011 ft 340 kts 332°
2026-05-07 00:09 43.77884 -12.49303 36013 ft 341 kts 335°
2026-05-07 00:09 43.82169 -12.52077 36007 ft 341 kts 336°
2026-05-07 00:10 43.86462 -12.54829 36010 ft 341 kts 338°
2026-05-07 00:10 43.90753 -12.57584 36012 ft 340 kts 338°
2026-05-07 00:11 43.95035 -12.60323 36019 ft 340 kts 338°
2026-05-07 00:11 43.99316 -12.63066 36019 ft 340 kts 337°
2026-05-07 00:12 44.03598 -12.65811 36017 ft 340 kts 336°
2026-05-07 00:12 44.07170 -12.68181 36017 ft 340 kts 338°
2026-05-07 00:13 44.11456 -12.70925 36018 ft 340 kts 337°
2026-05-07 00:13 44.15744 -12.73683 36016 ft 340 kts 336°
2026-05-07 00:14 44.20027 -12.76451 36019 ft 340 kts 335°
2026-05-07 00:14 44.24313 -12.79226 36017 ft 340 kts 334°
2026-05-07 00:15 44.28594 -12.82010 36014 ft 340 kts 333°